Regional Weather Roundup
Issued by NWS Kansas City/Pleasant Hill, MO

Home | Current Version | Previous Version | Text Only | Print | Product List | Glossary On
Versions: 1 2 3 4 5 6 7 8 9 10 11 12 13 14 15 16 17 18 19 20 21 22 23 24 25 26 27 28 29 30 31 32 33 34 35 36 37 38 39 40 41 42 43 44 45 46 47 48 49 50
000
ASUS43 KEAX 022010
RWREAX

WEATHER ROUNDUP FOR EASTERN KANSAS AND NORTHWEST MISSOURI
NATIONAL WEATHER SERVICE KANSAS CITY/PLEASANT HILL MO
200 PM CST FRI DEC 02 2016

KSZ040-057-103>105-MOZ028-029-037-043-022100-
...KANSAS CITY METROPOLITAN AREA...

CITY           SKY/WX    TMP DP  RH WIND       PRES   REMARKS
K.C. INTL      PTSUNNY   48  27  44 N5        30.27S
K.C. DOWNTOWN  SUNNY     50  27  40 CALM      30.27S
LEES SUMMIT    SUNNY     48  26  42 E3        30.27S
OLATHE - IXD   MOSUNNY   50  26  39 CALM      30.27R
OLATHE - OJC   SUNNY     49  26  41 VRB5      30.27R
LAWRENCE       SUNNY     48  28  46 CALM      30.28R

$$

MOZ001>008-011>017-020>025-030>033-038>040-044>046-053-054-022100-
...NORTHERN AND CENTRAL MISSOURI...

CITY           SKY/WX    TMP DP  RH WIND       PRES   REMARKS
ST. JOSEPH     SUNNY     47  27  45 CALM      30.28S
MOSBY          CLEAR     48  27  43 NW6       30.27S
WARRENSBURG    SUNNY     46  28  49 N3        30.28R
WHITEMAN AFB   MOSUNNY   49  26  41 CALM      30.26S
CLINTON        SUNNY     50  27  40 CALM      30.27S
SEDALIA        SUNNY     50  25  37 NW5       30.28S
WARSAW         NOT AVBL
CHILLICOTHE      N/A     47  30  51 VRB5      30.28F
KIRKSVILLE     SUNNY     46  30  53 VRB5      30.25F

$$

MOZ041-047>049-056>058-063>065-088>090-097-022100-
...EASTERN AND SOUTHERN MISSOURI...

CITY           SKY/WX    TMP DP  RH WIND       PRES   REMARKS
ST. LOUIS INTL MOSUNNY   49  29  46 NW6       30.28R
SPIRIT OF STL  MOSUNNY   50  29  44 W8        30.26F
COLUMBIA       SUNNY     49  28  44 W8        30.26F
JEFFERSON CITY SUNNY     50  26  39 NW7       30.27F
ROLLA          SUNNY     50  27  40 N6        30.24F
OSAGE BEACH    SUNNY     53  24  32 VRB5      30.26F
SPRINGFIELD    SUNNY     55  24  30 E6        30.22F
BRANSON        PTSUNNY   55  28  35 E5        30.23F
JOPLIN         PTSUNNY   57  28  33 SE7       30.22F
WEST PLAINS    SUNNY     55  27  34 CALM      30.25R

$$

IAZ060-094-KSZ022-034>040-054-083-096-NEZ052-066-093-022100-
...KANSAS...SOUTHEAST NEBRASKA AND IOWA...

CITY           SKY/WX    TMP DP  RH WIND       PRES   REMARKS
TOPEKA         SUNNY     50  27  40 CALM      30.28S
MANHATTAN      SUNNY     48  26  42 CALM      30.27F
EMPORIA        MOSUNNY   50  23  34 E7        30.25S
CHANUTE        MOSUNNY   57  23  26 E8        30.23S
WICHITA        PTSUNNY   53  22  29 NE3       30.21F
OMAHA          PTSUNNY   40  30  67 N7        30.29F
LINCOLN        SUNNY     44  28  53 W6        30.29F
FALLS CITY       N/A     44  30  57 MISG      30.28S
LAMONI         MOSUNNY   45  31  58 N8        30.24F
DES MOINES     CLOUDY    41  31  67 W6        30.28R

$$




USA.gov is the U.S. government's official web portal to all federal, state and local government web resources and services.